www.pogodaiklimat.ru
ПОГОДА в Неллиме
Время
(UTC), дата
04 6.12
05 6.12
06 6.12
07 6.12
08 6.12
09 6.12
10 6.12
11 6.12
12 6.12
13 6.12
14 6.12
15 6.12
16 6.12
17 6.12
18 6.12
19 6.12
20 6.12
21 6.12
22 6.12
23 6.12
00 7.12
01 7.12
02 7.12
03 7.12
04 7.12
05 7.12
06 7.12
07 7.12
08 7.12
09 7.12
10 7.12
11 7.12
12 7.12
13 7.12
14 7.12
15 7.12
16 7.12
17 7.12
18 7.12
19 7.12
20 7.12
21 7.12
22 7.12
23 7.12
00 8.12
01 8.12
02 8.12
03 8.12
04 8.12
05 8.12
06 8.12
07 8.12
08 8.12
09 8.12
10 8.12
11 8.12
12 8.12
13 8.12
14 8.12
15 8.12
16 8.12
17 8.12
18 8.12
19 8.12
20 8.12
21 8.12
22 8.12
23 8.12
00 9.12
01 9.12
02 9.12
03 9.12
04 9.12
05 9.12
06 9.12
07 9.12
08 9.12
09 9.12
10 9.12
11 9.12
12 9.12
13 9.12
14 9.12
15 9.12
16 9.12
17 9.12
18 9.12
19 9.12
20 9.12
21 9.12
22 9.12
23 9.12
00 10.12
01 10.12
02 10.12
03 10.12
04 10.12
05 10.12
06 10.12
07 10.12
08 10.12
09 10.12
10 10.12
11 10.12
12 10.12
13 10.12
14 10.12
15 10.12
16 10.12
17 10.12
18 10.12
19 10.12
20 10.12
21 10.12
22 10.12
23 10.12
00 11.12
01 11.12
02 11.12
03 11.12
04 11.12
05 11.12
06 11.12
07 11.12
08 11.12
09 11.12
10 11.12
11 11.12
12 11.12
13 11.12
14 11.12
15 11.12
16 11.12
17 11.12
18 11.12
19 11.12
20 11.12
21 11.12
22 11.12
23 11.12
00 12.12
01 12.12
02 12.12
03 12.12
04 12.12
05 12.12
06 12.12
07 12.12
08 12.12
09 12.12
10 12.12
11 12.12
12 12.12
13 12.12
14 12.12
15 12.12
16 12.12
17 12.12
18 12.12
19 12.12
20 12.12
21 12.12
22 12.12
23 12.12
00 13.12
01 13.12
02 13.12
03 13.12
Ветер
(напр.,м/с)
Видим. Явления Облачность Т
(С)
Тd
(С)
f
(%)
Тe
(С)
Тes
(С)
Комфортность P
(гПа)
Po
(гПа)
Тmin
(С)
Tmax
(С)
R
(мм)
R24
(мм)
S
(см)
штиль 0
{1}
50 км 10/0 200 м
[]
-3.5 -3.8 98 -5 -5 973.1 958.1
В 1-1
{1}
50 км 10/10 200 м
[]
-3.5 -3.8 98 -6 -6 973.4 958.4
З 1-1
{1}
50 км 10/0 200 м
[]
-3.5 -3.8 98 -6 -6 973.9 958.8 -7.3 -2.1 <0.5
СЗ 1-1
{1}
50 км 10/0 200 м
[]
-3.4 -3.7 98 -6 -6 974.6 959.6
З 2-3
{3}
21 км слаб. снег 10/0 100 м
[]
-3.9 -4.3 97 -8 -8 975.3 960.3
З 2-3
{4}
6000 м слаб. ливневой снег 10/0 50 м
[]
-4.5 -4.8 98 -9 -9 975.8 960.8
З 2-3
{3}
50 км в посл. час снег 10/0 200 м
[]
-4.4 -4.8 97 -9 -9 976.3 961.2
З 1-2
{2}
30 км 10/10 300 м
[]
-4.2 -4.6 97 -7 -7 976.6 961.5
З 2-3
{5}
22 км 10/10 200 м
[]
-5.2 -5.8 96 -10 -10 977.2 962.0
З 2-3
{3}
50 км 10/0 300 м
[]
-5.4 -6.0 96 -10 -10 977.6 962.4
ЮЗ 1-1
{3}
8000 м 10/0 200 м
[]
-5.5 -6.1 96 -8 -8 977.9 962.8
штиль 0
{1}
19 км 10/10 200 м
[]
-5.2 -5.7 96 -6 -6 978.3 963.1
штиль 0
{1}
45 км в посл. час снег 10/0 200 м
[]
-5.4 -5.9 96 -7 -7 978.8 963.6
штиль 0
{2}
40 км слаб. ливневой снег 9/9 200 м
[]
-6.3 -6.8 96 -7 -7 979.3 964.0
ЮВ 1-1
{1}
40 км 10/0 200 м
[]
-6.1 -6.6 96 -9 -9 979.8 964.6 -6.5 -3.3
В 1-1
{1}
18 км в посл. час снег 9/0 300 м
[]
-6.0 -6.6 96 -9 -9 980.1 964.8
ЮВ 1-2
{2}
3100 м осадки 10/0 200 м
[]
-5.4 -5.7 98 -8 -8 980.8 965.5
СВ 1-1
{2}
1800 м слаб. снег 10/0 200 м
[]
-5.0 -5.3 98 -8 -8 981.2 966.0 0.1
В 1-2
{2}
2400 м слаб. снег 10/10 200 м
[]
-4.4 -4.7 98 -7 -7 981.5 966.3 0.1
В 1-2
{3}
6000 м снежные зёрна 10/0 100 м
[]
-4.4 -4.8 97 -7 -7 981.9 966.7 0.1
В 2-3
{3}
2400 м слаб. снег 10/0 200 м
[]
-4.1 -4.4 98 -9 -9 982.3 967.2 0.1
В 3-4
{4}
8000 м слаб. ливневой снег 10/0 300 м
[]
-4.2 -4.5 98 -10 -10 982.5 967.3 0.1
В 2-2
{3}
15 км в посл. час переохл. осадки (гололёд) 10/0 600 м
[]
-4.2 -4.6 97 -9 -9 982.7 967.5
В 2-3
{3}
20 км в посл. час осадки 10/0 600 м
[]
-4.3 -4.7 97 -9 -9 982.9 967.7
В 3-4
{4}
23 км в посл. час осадки 10/10 100 м
[]
-4.2 -4.6 97 -10 -10 982.9 967.8
В 3-4
{5}
22 км 10/10 200 м
[]
-4.3 -4.7 97 -10 -10 982.9 967.7
В 3-4
{4}
23 км 9/0 600 м
[]
-4.5 -4.9 97 -10 -10 983.0 967.8 -6.2 -4.1 <0.5
В 4-6
{6}
45 км 9/9 300 м
[]
-4.8 -5.5 95 -11 -11 983.0 967.8
В 3-5
{7}
4300 м слаб. снег 10/10 600 м
[]
-5.5 -6.2 95 -11 -11 983.1 967.8 0.2
В 4-5
{6}
1300 м снег 10/0 300 м
[]
-5.7 -6.3 96 -12 -12 983.1 967.8 0.3
В 3-4
{5}
2200 м слаб. снег 10/0 600 м
[]
-5.8 -6.4 96 -12 -12 982.8 967.5 0.5
В 2-3
{4}
17 км слаб. снег 10/10 600 м
[]
-5.9 -6.6 95 -10 -10 982.5 967.2 0.1
В 3-4
{5}
40 км слаб. снег 10/0 300 м
[]
-5.7 -6.4 95 -11 -11 982.1 966.8
В 3-4
{4}
12 км слаб. ливневой снег 10/0 300 м
[]
-5.4 -6.0 96 -11 -11 981.7 966.5
В 3-4
{5}
40 км в посл. час снег 10/0 300 м
[]
-5.1 -5.7 96 -11 -11 981.5 966.3
В 3-4
{5}
13 км слаб. ливневой снег 10/0 600 м
[]
-4.7 -5.1 97 -10 -10 981.3 966.1
В 3-4
{4}
50 км 10/0 300 м
[]
-4.6 -5.1 96 -10 -10 981.0 965.8
В 2-3
{4}
10 км ливневой дождь 10/0 300 м
[]
-4.3 -4.7 97 -9 -9 980.9 965.7
В 3-3
{3}
50 км 10/0 300 м
[]
-4.2 -4.7 96 -10 -10 980.8 965.6 -6.1 -4.2
В 3-4
{4}
50 км 10/0 300 м
[]
-4.1 -4.5 97 -10 -10 980.5 965.4
В 3-4
{4}
50 км 10/0 300 м
[]
-3.8 -4.2 97 -9 -9 980.4 965.2
В 2-3
{4}
45 км 10/0 300 м
[]
-3.7 -4.0 98 -8 -8 980.1 965.0
В 2-3
{3}
3000 м снежные зёрна 10/0 300 м
[]
-3.6 -3.9 98 -8 -8 980.0 964.9
В 1-2
{3}
20 км в посл. час осадки 10/0 300 м
[]
-3.6 -4.0 97 -6 -6 979.7 964.6 0.1
В 2-2
{2}
12 км 10/0 300 м
[]
-3.6 -3.9 98 -8 -8 979.3 964.2
В 2-2
{3}
4500 м в посл. час осадки 10/0 300 м
[]
-3.3 -3.6 98 -8 -8 979.3 964.2
В 2-2
{2}
7000 м 10/10 200 м
[]
-3.4 -3.7 98 -8 -8 979.1 964.0 0.1
СВ 1-1
{2}
3100 м дымка 10/0 300 м
[]
-3.5 -3.8 98 -6 -6 978.7 963.6
СЗ 1-2
{2}
1900 м слаб. переохл. дождь (гололёд) 10/0 50 м
[]
-3.0 -3.1 99 -6 -6 978.6 963.6 0.1
СЗ 2-3
{3}
5000 м слаб. снег 10/0 50 м
[]
-3.9 -4.2 98 -8 -8 978.4 963.3 0.1
З 3-4
{4}
3100 м слаб. снег 10/0 100 м
[]
-4.3 -4.6 98 -10 -10 978.7 963.6 -4.3 -2.8 0.1 <0.5
З 3-4
{4}
11 км слаб. снег 10/0 100 м
[]
-4.7 -5.1 97 -10 -10 978.6 963.4
З 2-3
{4}
7000 м в посл. час снег 10/0 50 м
[]
-5.1 -5.4 98 -10 -10 978.5 963.3
З 3-4
{5}
12 км 10/0 50 м
[]
-5.6 -5.9 98 -11 -11 978.5 963.3
З 3-5
{5}
17 км 10/0 50 м
[]
-6.3 -6.8 96 -12 -12 978.6 963.3
З 2-4
{4}
50 км 10/10 100 м
[]
-6.7 -7.4 95 -11 -11 978.5 963.2
З 3-4
{4}
35 км ливневой дождь 9/5 200 м
[]
-7.7 -8.4 95 -14 -14 978.4 963.1
З 2-3
{4}
35 км слаб. снег 9/8 200 м
[]
-7.9 -8.5 95 -12 -12 978.5 963.2
ЮЗ 1-1
{3}
19 км слаб. ливневой снег 9/3 300 м
[]
-8.1 -8.8 95 -11 -11 978.2 962.9
З 2-3
{4}
7000 м слаб. снег 9/9 300 м
[]
-7.6 -8.1 96 -12 -12 978.0 962.7
З 3-4
{5}
5000 м снежные зёрна 10/0 300 м
[]
-5.9 -6.4 96 -12 -12 977.6 962.4
З 4-5
{5}
7000 м в посл. час зёрна 10/0 300 м
[]
-5.2 -5.7 96 -12 -12 977.8 962.6
СЗ 3-4
{5}
14 км слаб. снег 10/0 300 м
[]
-4.7 -5.1 97 -10 -10 978.0 962.9 -8.3 -4.3
З 2-3
{4}
6000 м слаб. снег 10/0 600 м
[]
-4.9 -5.4 96 -9 -9 978.2 963.0
З 2-3
{3}
28 км слаб. снег 10/0 1000 м
[]
-5.0 -5.4 97 -9 -9 978.4 963.2
З 2-4
{4}
35 км ливневой дождь 8/0 1000 м
[]
-5.9 -6.4 96 -10 -10 978.9 963.7
З 3-3
{4}
45 км 9/0 1000 м
[]
-6.5 -7.2 95 -12 -12 979.1 963.8
З 3-4
{4}
50 км ясно -9.5 -10.7 91 -15 -15 979.6 964.1
З 3-4
{4}
50 км ясно -13.1 -14.3 91 -19 -19 980.1 964.4
З 3-3
{4}
50 км ясно -13.9 -14.7 94 -20 -20 980.4 964.7
З 3-4
{4}
50 км ясно -16.3 -17.9 87 -23 -23 980.5 964.6
З 2-3
{4}
50 км ясно -17.5 -19.1 87 -23 -23 980.5 964.5
З 2-3
{3}
50 км ясно -18.4 -20.0 87 -24 -24 980.6 964.6
З 3-4
{4}
50 км ясно -19.7 -21.6 85 -27 -27 980.7 964.6
З 3-3
{3}
50 км 1/0
[]
-20.1 -21.9 85 -28 -28 980.7 964.6 -20.1 -4.6 <0.5
З 3-3
{4}
50 км в посл. час зёрна 9/9
[]
-19.1 -20.8 86 -27 -27 980.8 964.7
З 3-4
{4}
50 км 9/9 2000 м
[]
-15.2 -16.2 92 -22 -22 980.8 965.0
З 2-3
{3}
50 км 10/0 2000 м
[]
-14.5 -15.8 90 -19 -19 981.2 965.4
З 2-3
{3}
50 км 10/0
[]
-14.4 -15.7 90 -19 -19 980.9 965.2
З 2-3
{3}
27 км в посл. час зёрна 9/0
[]
-14.3 -15.6 90 -19 -19 981.1 965.3
З 2-3
{3}
45 км 10/0
[]
-13.9 -15.1 91 -19 -19 981.3 965.6
З 2-3
{4}
50 км 9/0 2000 м
[]
-13.3 -14.5 91 -18 -18 981.6 965.9
З 2-3
{3}
50 км 9/0 2000 м
[]
-12.8 -13.9 91 -17 -17 982.0 966.3
З 3-3
{4}
50 км 9/9 600 м
[]
-12.2 -13.3 91 -18 -18 982.4 966.8
З 2-3
{4}
50 км 9/0 600 м
[]
-11.7 -12.8 92 -16 -16 983.0 967.3
З 3-4
{4}
50 км 9/0 1000 м
[]
-11.7 -12.8 92 -18 -18 983.6 967.9
З 2-3
{4}
50 км в посл. час снег 9/0
[]
-12.1 -13.2 91 -17 -17 984.0 968.4 -20.1 -11.5
З 2-2
{4}
50 км 9/0
[]
-12.7 -14.1 89 -17 -17 984.8 969.1
З 2-2
{3}
50 км 9/0
[]
-14.3 -15.6 90 -19 -19 985.7 969.9
СЗ 2-3
{3}
50 км 4/0
[]
-16.3 -18.0 87 -22 -22 986.6 970.6
СЗ 1-2
{2}
50 км 9/0
[]
-17.7 -19.4 87 -21 -21 987.6 971.5
З 2-3
{3}
50 км 6/0 1000 м
[]
-18.1 -19.8 86 -24 -24 988.5 972.4
З 2-3
{4}
50 км ясно -19.3 -21.1 86 -25 -25 989.4 973.3
З 2-4
{4}
50 км ясно -20.3 -22.3 84 -26 -26 990.3 974.1
З 4-6
{6}
40 км ясно -19.8 -21.2 89 -29 -29 991.2 975.0
З 4-6
{6}
40 км ясно -11.5 -12.2 95 -19 -19 991.4 975.7
З 4-6
{8}
45 км ясно -10.6 -11.5 93 -18 -18 992.3 976.6
З 4-7
{8}
45 км 9/0
[]
-8.8 -9.7 93 -16 -16 992.7 977.1
З 4-7
{8}
40 км 9/0 2000 м
[]
-8.6 -9.8 91 -16 -16 993.7 978.0 -20.6 -8.6 <0.5
З 5-7
{8}
35 км 9/0 1500 м
[]
-8.9 -10.2 90 -17 -17 994.7 979.1
З 6-11
{11}
35 км в посл. час зёрна 10/0
[]
-8.4 -9.7 90 -17 -17 995.4 979.8
З 7-10
{10}
29 км слаб. ливневой снег 9/0
[]
-8.4 -9.8 90 -17 -17 996.5 980.9
З 6-10
{12}
35 км в посл. час снег ясно -9.0 -10.5 89 -17 -17 997.6 981.9
З 6-9
{10}
30 км ясно -9.3 -10.8 89 -18 -18 998.6 982.9
З 5-8
{10}
35 км ясно -9.7 -11.0 90 -18 -18 999.8 984.1
З 5-7
{10}
40 км ясно -10.0 -11.5 89 -18 -18 1000.8 985.0
З 5-8
{10}
50 км ясно -10.0 -11.8 87 -18 -18 1001.8 986.0
З 4-6
{9}
40 км 10/0 1000 м
[]
-9.1 -10.8 87 -16 -16 1002.7 986.9
З 2-3
{6}
40 км 8/0 1500 м
[]
-10.9 -12.2 90 -15 -15 1003.5 987.6
СЗ 2-3
{3}
45 км ясно -14.7 -16.1 89 -20 -20 1004.2 988.0
ЮЗ 3-4
{4}
50 км ясно -16.4 -18.0 87 -23 -23 1004.5 988.3 -16.4 -8.2
З 3-4
{4}
50 км ясно -18.0 -19.7 86 -25 -25 1005.4 989.0
З 1-3
{4}
50 км ясно -18.5 -20.1 87 -21 -21 1005.9 989.5
СЗ 1-2
{2}
50 км ясно -19.1 -20.8 86 -22 -22 1006.1 989.6
З 1-2
{3}
50 км ясно -19.8 -21.4 87 -23 -23 1006.5 990.0
СЗ 1-2
{2}
50 км ясно -20.4 -22.3 85 -23 -23 1007.1 990.5
ЮЗ 1-1
{2}
50 км ясно -20.9 -22.8 85 -24 -24 1007.3 990.7
СВ 1-1
{2}
50 км ясно -21.4 -23.4 84 -25 -25 1007.4 990.7
ЮВ 3-3
{3}
50 км ясно -22.2 -24.3 83 -30 -30 1007.2 990.5
СВ 1-2
{3}
50 км ясно -22.5 -24.8 81 -26 -26 1007.1 990.4
ЮВ 3-5
{5}
45 км ясно -21.6 -23.2 87 -30 -30 1006.3 989.7
В 3-4
{5}
50 км ясно -20.3 -21.9 87 -28 -28 1005.6 989.1
В 3-4
{4}
50 км ясно -22.6 -24.9 81 -31 -31 опасность
обморожения
1005.2 988.6 -22.8 -16.4 <0.5
В 3-5
{5}
50 км 8/1 300 м
[]
-20.8 -22.6 85 -29 -29 1004.2 987.6
В 4-5
{6}
50 км 10/0
[]
-13.3 -14.4 91 -21 -21 1002.9 986.9
ЮВ 5-8
{8}
50 км 10/0 2000 м
[]
-9.6 -10.6 92 -17 -17 1001.4 985.6
ЮВ 5-8
{8}
8000 м слаб. снег 9/8 1000 м
[]
-9.5 -10.7 91 -17 -17 1000.4 984.7
ЮВ 5-9
{11}
2900 м слаб. снег 10/0 600 м
[]
-8.8 -10.0 91 -17 -17 998.9 983.2
ЮВ 6-10
{11}
5000 м слаб. ледяной дождь 10/0 600 м
[]
-9.0 -10.2 91 -17 -17 996.9 981.3 0.3
ЮВ 6-9
{10}
1800 м слаб. снег 10/0 600 м
[]
-8.6 -9.7 92 -17 -17 995.7 980.1 0.2
ЮВ 6-11
{11}
1000 м снег 10/0 600 м
[]
-7.5 -8.5 93 -16 -16 994.3 978.7 0.1
ЮВ 6-10
{12}
2300 м слаб. снег 10/0 600 м
[]
-7.0 -8.1 92 -15 -15 992.7 977.2 0.3
ЮВ 6-11
{14}
2100 м слаб. снег 10/0 600 м
[]
-6.5 -7.5 93 -15 -15 991.4 975.9 0.2
ЮВ 5-8
{12}
1500 м снег 10/0 600 м
[]
-5.6 -6.5 93 -13 -13 990.1 974.8 0.3
Ю 5-10
{12}
2800 м слаб. снег 10/0 1000 м
[]
-4.9 -5.8 93 -12 -12 989.0 973.7 -23.1 -4.8 0.3
ЮВ 5-8
{11}
600 м снег 10/0 600 м
[]
-4.4 -5.1 95 -12 -12 988.4 973.1 0.2
Ю 5-9
{9}
800 м снег 10/0 300 м
[]
-3.9 -4.4 96 -11 -11 988.3 973.0 0.3
Ю 4-7
{10}
1200 м снег 10/0 600 м
[]
-3.0 -3.5 96 -9 -9 988.4 973.2 0.3
ЮЗ 3-6
{7}
2800 м слаб. снег 10/0 600 м
[]
-2.2 -2.5 98 -8 -8 989.0 973.8 0.3
ЮЗ 5-10
{10}
30 км слаб. ливневой снег 9/9 300 м
[]
-1.2 -1.6 97 -8 -8 989.8 974.7 0.1
ЮЗ 5-9
{9}
50 км 4/0 300 м
[]
-1.1 -1.6 96 -8 -8 990.8 975.6
ЮЗ 6-10
{10}
45 км слаб. ливневой снег 1/0 300 м
[]
-0.9 -1.5 96 -8 -8 991.9 976.7
ЮЗ 4-8
{11}
45 км в посл. час снег 3/0 300 м
[]
-1.1 -1.7 96 -7 -7 992.6 977.4
ЮЗ 4-6
{8}
50 км 1/0 300 м
[]
-0.9 -1.5 96 -7 -7 993.1 978.0
ЮЗ 3-5
{9}
50 км 9/0 300 м
[]
-0.6 -1.3 95 -6 -6 994.0 978.8
ЮЗ 2-5
{8}
40 км снежные зёрна 9/0 300 м
[]
-0.8 -1.5 95 -5 -5 994.3 979.1
Ю 2-4
{8}
50 км 3/0 600 м
[]
-1.5 -2.0 96 -6 -6 994.5 979.3 -4.8 -0.3 <0.5
В 1-4
{7}
50 км 10/0 300 м
[]
-0.2 -1.0 94 -2 -2 994.8 979.6
ЮЗ 3-6
{6}
50 км 10/0 300 м
[]
+0.2 -0.7 94 -5 -5 995.2 980.0
Ю 3-7
{7}
20 км осадки 10/0 300 м
[]
+0.4 -0.6 93 -4 -4 995.5 980.4
Ю 2-4
{7}
27 км слаб. ливневой снег 9/0 300 м
[]
+0.3 -0.6 94 -3 -3 995.7 980.5
ЮВ 2-3
{3}
50 км в посл. час дождь 9/9 300 м
[]
-1.8 -2.3 96 -6 -6 995.8 980.6
ЮВ 2-4
{4}
50 км в посл. час зёрна 8/8 300 м
[]
-2.4 -2.6 99 -7 -7 995.7 980.4
Ю 2-4
{4}
6000 м слаб. ливневой снег 9/9 500 м
[]
-1.6 -1.7 99 -6 -6 995.7 980.5
Ю 2-4
{5}
40 км слаб. ливневой снег 10/10 600 м
[]
-0.2 -1.1 94 -4 -4 995.8 980.6
Ю 2-3
{4}
45 км в посл. час снег 9/9 600 м
[]
-0.6 -1.1 96 -5 -5 995.5 980.3
ЮВ 2-3
{4}
50 км в посл. час снег 10/10 300 м
[]
-0.3 -0.7 97 -4 -4 995.5 980.3
ЮВ 2-3
{4}
8000 м слаб. ливневой снег 9/9 930 м
[]
-0.1 -0.7 96 -4 -4 995.3 980.1
Ю 2-3
{6}
50 км 8/6 600 м
[]
-0.4 -1.1 95 -4 -4 995.1 980.0 -2.7 +0.4
Ю 2-3
{5}
35 км слаб. ливневой снег 9/9 300 м
[]
0.0 -0.6 96 -4 -4 994.8 979.7
Ю 2-6
{6}
50 км в посл. час морось 9/9 300 м
[]
+0.4 -0.3 95 -3 -3 994.7 979.6
Ю 3-7
{7}
50 км ясно +0.4 -0.5 94 -4 -4 994.5 979.4
Ю 3-8
{10}
50 км 8/8
[]
+0.9 -0.4 91 -4 -4 994.2 979.1
Ю 4-7
{10}
50 км 6/6
[]
+1.1 -0.5 89 -4 -4 994.1 979.0
Ю 5-8
{8}
50 км 9/1 300 м
[]
+1.1 -0.5 89 -5 -5 993.9 978.8
Ю 5-11
{11}
50 км 9/9
[]
+1.2 -0.6 88 -5 -5 993.7 978.6
Ю 3-6
{9}
50 км 9/6 300 м
[]
+1.0 -0.6 89 -4 -4 993.5 978.4
Ю 4-8
{8}
50 км в посл. час осадки 4/4 300 м
[]
+0.9 -0.8 88 -4 -4 993.1 978.0
Местоположение метеостанции Неллим (Финляндия): широта 68.85 долгота 28.30 высота над уровнем моря 121 м.
В архиве по умолчанию представлена погода в Неллиме за последнюю неделю. Архивные данные за месяц целиком и за предыдущие месяцы, начиная с января 2011 года, Вы можете получить, выбрав интересующий диапазон дат из раскрывающегося списка и нажав кнопку "Найти!".
*Определитесь, кто Вы:
Внимание! Время в таблицах - всемирное. Для получения местного времени необходимо прибавить поправку, которая равна 1 ч.
Смотрите также архив погоды в соседних городах и на ближайших метеорологических станциях:
Партнеры нашего сайта:      
Пояснения к столбцам:
  • Ветер - указаны скорость ветра в м/с - средняя за 10 мин, порывы в срок и между сроками (в фигурных скобках) и направление, откуда дует ветер: С - северный,
  • СВ - северо-восточный, В - восточный, ЮВ - юго-восточный, Ю - южный, ЮЗ - юго-западный, З - западный, СЗ - северо-западный.
  • Видимость - горизонтальная дальность видимости в метрах или километрах. При видимости от 1 до 10 км при отсутствии осадков обычно наблюдается дымка, при ухудшении видимости до 1 км и менее - туман. В сухую погоду видимость может ухудшаться дымом, пылью или мглою.
  • Явления - указаны атмосферные явления, наблюдавшиеся в срок или в последний час перед сроком; фигурными скобками обозначены явления, наблюдавшиеся между сроками (за 1-3 часа до срока); квадратными скобками обозначены град или гололедные отложения с указанием их диаметра в мм.
  • Облачность - указаны через наклонную черту общая и нижняя облачность в баллах и высота нижней границы облаков в метрах; квадратными скобками обозначены формы облаков: Ci - перистые, Cs - перисто-слоистые, Cc - перисто-кучевые, Ac - высококучевые, As - высокослоистые, Sc - слоисто-кучевые, Ns - слоисто-дождевые, Cu - кучевые, Cb - кучево-дождевые. Подробнее классификацию облаков см. в Атласе облаков (PDF).
  • T - Температура воздуха - температура, измеренная на высоте 2 м над землей.
  • Td - Температура точки росы - температура, при понижении до которой содержащийся в воздухе водяной пар достигнет насыщения.
  • f - Относительная влажность воздуха - влажноcть воздуха, измеренная на высоте 2 м над землей.
  • Te - Эффективная температура - температура, которую ощущает одетый по сезону человек в тени. Характеристика душности погоды. При расчете учитывается влияние влажности воздуха и скорости ветра на теплоощущения человека.
  • Tes - Эффективная температура на солнце - температура, которую ощущает человек, с поправкой на солнечный нагрев. Характеристика знойности погоды. Зависит от высоты солнца над горизонтом, облачности и скорости ветра. Ночью, в пасмурную погоду, а также при ветре 12 м/с и более поправка равна нулю.
  • P - Атмосферное давление - приведенное к уровню моря атмосферное давление.
  • Po - Атмосферное давление - измеренное на уровне метеостанции атмосферное давление.
  • Tmin - Минимальная температура - минимум температуры воздуха на высоте 2 м над землей.
  • Tmax - Максимальная температура - максимум температуры воздуха на высоте 2 м над землей.
  • R - Количество осадков - Количество выпавших осадков за период времени, мм. При наведении курсора мыши на число - период времени, за который выпало указанное количество осадков.
  • R24 - Количество осадков - Количество выпавших осадков за 24 часа, мм.
  • S - Снежный покров - Высота снежного покрова, см. При наведении курсора мыши на число - состояние снежного покрова и степень покрытия местности в баллах.